Terug naar catalogus

YUNYAO-1 56

ActiefWeerSSO
NORAD 63292·PAYLOAD·🇨🇳 China
Deze satellietnaam is nog niet bevestigd door officiële bronnen.

Gelanceerd Mar 17, 2025 vanaf Jiuquan Satellite Launch Center

Loading…

Volgende Passages (komende 24 uur)

TLE

VersSource: Space-Track

Epoch: Sep 14, 2026, 14:18 UTC

1 63292U 25055B   26257.59605008  .00006141  00000-0  34977-3 0  9999
2 63292  97.6629  38.6561 0035121 203.7883 156.1726 15.12668285 82591

Volg YUNYAO-1 56 in realtime met AllMySat

Download on the App Store